sat.trackr.live / text

‹ back to catalog

STARLINK-4532

NORAD 53424 · 2022-097AN

PAYLOAD ACTIVE UNKNOWN

§ Identity

Operator
Country
US
Launch date
2022-08-10
Launch site
AFETR
Launch vehicle
Mass (kg)
RCS (m²)

Purposes: comms

External: N2YO · Heavens-Above · Gunter

§ Orbital elements

Epoch: 2026-05-25T05:33:32.737824Z

Period
95.44 min
Inclination
53.2140°
Eccentricity
0.0001507
Mean motion
15.08831131 rev/d
Perigee alt
538.7 km
Apogee alt
540.8 km
Semi-major
6,917.9 km
B*
1.9372e-4
RAAN
130.5105°
Arg perigee
86.5991°
Mean anomaly
273.5173°
Rev number
21,020

§ Raw data

STARLINK-45321 53424U 22097AN  26145.23162891  .00002796  00000+0  19372-3 0  99962 53424  53.2140 130.5105 0001507  86.5991 273.5173 15.08831131210205

JSON: /api/v1/satellites/53424 · /tle

For live sub-satellite position, see the globe view (requires WebGL).

§ Visibility from observer

Set your observer location to see the next 7 days of passes ≥ 10°. The values pass through the URL so the page stays shareable.

No JS? Fill the form by hand. The geolocation button needs JavaScript.